User: anonymous   Login
Location: Oshawa
(43.9000°N, 78.8670°W)
Time: 23:07:18
(UTC-05:00)
Language:

Cosmos 1821 Rocket - Orbit

View from above orbital plane
View from above orbital plane
View from above satellite
View from above satellite

Ground track
Ground track

The orbit data is extracted from the following two-line orbital elements,

1 17526U 87017B   18055.57714689 +.00000078 +00000-0 +63879-4 0  9992
2 17526 082.9020 211.6123 0039650 333.1355 026.7748 13.76835416540823
Epoch (UTC): 24 February 2018 13:51:05
Eccentricity: 0.0039650
inclination: 82.9020°
perigee height: 946 km
apogee height: 1004 km
right ascension of ascending node: 211.6123°
argument of perigee: 333.1355°
revolutions per day: 13.76835416
mean anomaly at epoch: 26.7748°
orbit number at epoch: 54082

The dashed part of the orbit path shows where the satellite is in the earth's shadow,  

DLR